Tracking 29528 objects as of 13-Sep-2024
HD Live streaming from Space Station
objects crossing your sky now

FENGYUN 1C DEB

Track FENGYUN 1C DEB now!
10-day predictions


NORAD ID: 30542
Int'l Code: 1999-025AKG
Perigee: 857.5 km
Apogee: 898.9 km
Inclination: 98.8 °
Period: 102.4 minutes
Semi major axis: 7249 km
RCS: 0.0234 m2 (small)
Launch date: May 10, 1999
Source: People's Republic of China (PRC)
Launch site: Taiyaun Space Center, China (TSC)

Note: This is SATELLITE DEBRIS
Your satellite tracking list
Your tracking list is empty




NASA's NSSDC Master Catalog

Two Line Element Set (TLE):
1 30542U 99025AKG 24257.08459303  .00000908  00000-0  57175-3 0  9996
2 30542  98.8431 291.4668 0028546 170.9773 215.5007 14.06579108905346
Source of the keplerian elements: AFSPC